Location: Albuquerque Trailhead
(34.7934°N, 106.3736°W)
Time: 11:28:38
(UTC+00:00)

Cosmos 1674 - Pass Details

Date: 20 June 2021
Orbit: 494 x 514 km, 82.5° (Epoch: 30 July)

Event Time Altitude Azimuth Distance (km) Brightness Sun altitude
Exits shadow 03:19:01 15° 137° (SE) 1,404 4.2 -10.6°
Maximum altitude 03:21:11 25° 90° (E) 1,040 3.8 -10.9°
Drops below altitude 10° 03:24:15 10° 35° (NE) 1,697 5.4 -11.4°
Sets 03:26:36 0° 21° (NNE) 2,582 6.5 -11.8°
